Regional Weather Roundup
Issued by NWS

Home | Current Version | Previous Version | Graphics & Text | Print | Product List | Glossary Off
Versions: 1 2 3 4 5 6 7 8 9 10 11 12 13 14 15 16 17 18 19 20 21 22 23 24 25 26 27 28 29 30 31 32 33 34 35 36 37 38 39 40 41 42 43 44 45 46 47 48 49 50

000
ASUS43 KLSX 282159
RWRMO

WEATHER SUMMARY FOR MISSOURI
NATIONAL WEATHER SERVICE SPRINGFIELD MO
400 PM CST SUN DEC 28 2014

NOTE: "FAIR" INDICATES FEW OR NO CLOUDS BELOW 12,000 FEET WITH NO
       SIGNIFICANT WEATHER AND/OR OBSTRUCTIONS TO VISIBILITY.
       CURRENT SKY AND/OR WEATHER CONDITIONS ARE NOT AVAILABLE FOR
       CHILLICOTHE AND FARMINGTON.

MOZ001>031-035>038-043-044-053-054-282300-
...NORTHERN AND WESTERN MISSOURI...

CITY           SKY/WX    TMP DP  RH WIND       PRES   REMARKS
KANSAS CTY INT MOCLDY    37  18  46 SW5       30.13R
KANSAS C DTWN  CLEAR     40  16  37 SW5       30.14S
LEE`S SUMMIT   CLEAR     38  18  44 S7        30.14S
ST JOSEPH      CLEAR     37  18  46 S7        30.14S
CHILLICOTHE      N/A     41  20  43 CALM      30.17R
KIRKSVILLE     CLEAR     37  18  46 SW5       30.16R

$$
MOZ066>068-077>081-088>096-101>105-282300-
...SOUTHWEST MISSOURI...

CITY           SKY/WX    TMP DP  RH WIND       PRES   REMARKS
SPRINGFIELD    CLEAR     38  23  55 NE3       30.14F
JOPLIN         SUNNY     38  23  55 CALM      30.17S

$$
MOZ032>034-039>042-045>050-055>058-069>072-282300-
...CENTRAL MISSOURI...

CITY           SKY/WX    TMP DP  RH WIND       PRES   REMARKS
COLUMBIA       CLEAR     37  23  56 CALM      30.17S
JEFFERSON CITY CLEAR     38  22  52 CALM      30.19S
ROLLA          CLEAR     35  24  64 CALM      30.15S
SEDALIA        CLEAR     37  19  48 SW3       30.17S
OSAGE BEACH    CLEAR     37  23  56 CALM      30.17S

$$
MOZ051-052-059>065-282300-
...EAST CENTRAL MISSOURI...

CITY           SKY/WX    TMP DP  RH WIND       PRES   REMARKS
ST LOUIS INTL  PTCLDY    36  23  59 CALM      30.20F
SPIRIT OF STL  PTCLDY    36  25  64 CALM      30.19F
ST CHARLES     CLEAR     35  24  64 S3        30.20F

$$
MOZ072>076-082>087-097>100-106>115-282300-
...SOUTH CENTRAL AND SOUTHEAST MISSOURI...

CITY           SKY/WX    TMP DP  RH WIND       PRES   REMARKS
CAPE GIRARDEAU CLOUDY    35  29  78 N7        30.21R WCI  29
FARMINGTON     MOCLDY    34  27  75 S5        30.20S WCI  30
POPLAR BLUFF   CLOUDY    36  27  69 NE6       30.20S
WEST PLAINS    PTCLDY    35  26  69 NE5       30.15F

$$



USA.gov is the U.S. government's official web portal to all federal, state and local government web resources and services.